| time (UTC) | temp F | wind direction | speed knots | gust knots | rain 1hr in | rain 24hr in | rain mn in | humidity % | barometer mb |
| 20260506212037 | 61 | 135 | 3.5 | 8.7 | 0.00 | 0.03 | 0.03 | 87 | 1013.7 |
| 20260506211037 | 61 | 135 | 2.6 | 8.7 | 0.00 | 0.03 | 0.03 | 87 | 1013.7 |
| 20260506210017 | 61 | 135 | 2.6 | 7.8 | 0.00 | 0.03 | 0.03 | 87 | 1013.7 |
| 20260506205016 | 61 | 135 | 1.7 | 4.3 | 0.00 | 0.03 | 0.03 | 87 | 1013.5 |
| 20260506204016 | 62 | 135 | 2.6 | 4.3 | 0.00 | 0.03 | 0.03 | 86 | 1013.5 |
| 20260506203016 | 62 | 135 | 0.9 | 3.5 | 0.00 | 0.03 | 0.03 | 86 | 1013.4 |
| 20260506202016 | 62 | 135 | 0.9 | 2.6 | 0.00 | 0.03 | 0.03 | 85 | 1013.4 |
| 20260506201016 | 62 | 135 | 1.7 | 5.2 | 0.00 | 0.03 | 0.03 | 85 | 1013.3 |
| 20260506200016 | 62 | 135 | 0.9 | 4.3 | 0.00 | 0.03 | 0.03 | 84 | 1013.1 |
| 20260506195016 | 62 | 158 | 0.9 | 3.5 | 0.00 | 0.03 | 0.03 | 84 | 1013.0 |
| 20260506194016 | 62 | 158 | 0.9 | 2.6 | 0.00 | 0.03 | 0.03 | 84 | 1012.9 |
| 20260506193016 | 62 | 158 | 1.7 | 5.2 | 0.00 | 0.03 | 0.03 | 84 | 1012.7 |
| 20260506192016 | 62 | 158 | 0.9 | 6.1 | 0.00 | 0.03 | 0.03 | 84 | 1012.6 |
| 20260506191036 | 62 | 158 | 0.9 | 4.3 | 0.00 | 0.03 | 0.03 | 84 | 1012.6 |
| 20260506190017 | 62 | 135 | 1.7 | 3.5 | 0.00 | 0.03 | 0.03 | 84 | 1012.5 |
| 20260506185016 | 63 | 158 | 0.9 | 3.5 | 0.00 | 0.03 | 0.03 | 83 | 1012.3 |
| 20260506184016 | 63 | 158 | 0.9 | 5.2 | 0.00 | 0.03 | 0.03 | 83 | 1012.2 |
| 20260506183016 | 63 | 0.0 | 1.7 | 0.00 | 0.03 | 0.03 | 83 | 1012.4 | |
| 20260506182036 | 63 | 0.0 | 0.9 | 0.00 | 0.03 | 0.03 | 83 | 1012.3 | |
| 20260506181036 | 63 | 0.0 | 2.6 | 0.00 | 0.03 | 0.03 | 82 | 1012.3 | |
| 20260506180036 | 63 | 158 | 0.9 | 4.3 | 0.00 | 0.03 | 0.03 | 82 | 1012.2 |
| 20260506175016 | 64 | 158 | 1.7 | 6.1 | 0.00 | 0.03 | 0.03 | 82 | 1012.1 |
| 20260506174016 | 64 | 135 | 0.9 | 6.1 | 0.00 | 0.03 | 0.03 | 82 | 1012.3 |
| 20260506173016 | 64 | 180 | 2.6 | 6.1 | 0.00 | 0.03 | 0.03 | 81 | 1012.2 |
| 20260506172016 | 64 | 158 | 0.9 | 5.2 | 0.00 | 0.03 | 0.03 | 81 | 1012.1 |
| 20260506171017 | 64 | 180 | 1.7 | 8.7 | 0.00 | 0.03 | 0.03 | 81 | 1012.0 |
| 20260506170016 | 64 | 180 | 2.6 | 9.6 | 0.00 | 0.03 | 0.03 | 81 | 1012.1 |
| 20260506165036 | 64 | 158 | 1.7 | 9.6 | 0.00 | 0.03 | 0.03 | 81 | 1012.1 |
| 20260506164016 | 64 | 158 | 2.6 | 8.7 | 0.00 | 0.03 | 0.03 | 81 | 1012.1 |
| 20260506163016 | 65 | 158 | 1.7 | 6.1 | 0.00 | 0.03 | 0.03 | 81 | 1012.1 |
| 20260506162015 | 65 | 158 | 1.7 | 5.2 | 0.00 | 0.03 | 0.03 | 80 | 1012.1 |
| 20260506161016 | 65 | 180 | 2.6 | 10.4 | 0.00 | 0.03 | 0.03 | 79 | 1012.1 |
| 20260506160018 | 65 | 158 | 3.5 | 10.4 | 0.00 | 0.03 | 0.03 | 79 | 1012.0 |
| 20260506155018 | 65 | 158 | 2.6 | 10.4 | 0.00 | 0.03 | 0.03 | 80 | 1012.1 |
| 20260506154018 | 65 | 180 | 2.6 | 9.6 | 0.00 | 0.03 | 0.03 | 80 | 1012.1 |
| 20260506153018 | 65 | 180 | 2.6 | 8.7 | 0.00 | 0.03 | 0.03 | 81 | 1012.2 |
| 20260506152017 | 65 | 203 | 0.9 | 3.5 | 0.00 | 0.03 | 0.03 | 80 | 1012.1 |
| 20260506151018 | 65 | 0.0 | 2.6 | 0.00 | 0.03 | 0.03 | 80 | 1012.1 | |
| 20260506150057 | 65 | 203 | 0.9 | 5.2 | 0.00 | 0.03 | 0.03 | 80 | 1012.1 |
| 20260506145017 | 64 | 203 | 1.7 | 4.3 | 0.00 | 0.03 | 0.03 | 79 | 1012.0 |
| 20260506144017 | 64 | 158 | 2.6 | 8.7 | 0.00 | 0.03 | 0.03 | 80 | 1012.0 |
| 20260506143017 | 66 | 158 | 4.3 | 9.6 | 0.00 | 0.03 | 0.03 | 75 | 1012.1 |
| 20260506142017 | 67 | 180 | 3.5 | 12.2 | 0.00 | 0.03 | 0.03 | 68 | 1012.0 |
| 20260506141017 | 68 | 180 | 4.3 | 10.4 | 0.00 | 0.03 | 0.03 | 65 | 1011.9 |
| 20260506140037 | 68 | 180 | 5.2 | 11.3 | 0.00 | 0.03 | 0.03 | 64 | 1012.0 |
| 20260506135017 | 68 | 158 | 3.5 | 9.6 | 0.00 | 0.03 | 0.03 | 63 | 1012.0 |
| 20260506134017 | 68 | 135 | 2.6 | 10.4 | 0.00 | 0.03 | 0.03 | 63 | 1012.1 |
| 20260506133017 | 69 | 180 | 4.3 | 12.2 | 0.00 | 0.03 | 0.03 | 62 | 1012.3 |
| 20260506132017 | 69 | 180 | 3.5 | 12.2 | 0.00 | 0.03 | 0.03 | 63 | 1012.6 |
| 20260506131017 | 68 | 158 | 3.5 | 9.6 | 0.00 | 0.03 | 0.03 | 63 | 1012.6 |
| 20260506130017 | 68 | 180 | 5.2 | 12.2 | 0.00 | 0.03 | 0.03 | 62 | 1012.7 |
| 20260506125037 | 68 | 135 | 3.5 | 13.9 | 0.00 | 0.03 | 0.03 | 63 | 1012.7 |
| 20260506124017 | 68 | 180 | 5.2 | 13.0 | 0.00 | 0.03 | 0.03 | 62 | 1012.7 |
| 20260506123057 | 68 | 180 | 2.6 | 8.7 | 0.00 | 0.03 | 0.03 | 64 | 1012.6 |
| 20260506122017 | 68 | 135 | 3.5 | 12.2 | 0.00 | 0.03 | 0.03 | 64 | 1012.5 |
| 20260506121017 | 68 | 135 | 1.7 | 7.8 | 0.00 | 0.03 | 0.03 | 65 | 1012.4 |
| 20260506120017 | 68 | 158 | 4.3 | 10.4 | 0.00 | 0.03 | 0.03 | 65 | 1012.6 |
| 20260506115017 | 68 | 180 | 2.6 | 7.8 | 0.00 | 0.03 | 0.03 | 65 | 1012.7 |
| 20260506114016 | 68 | 158 | 3.5 | 10.4 | 0.00 | 0.03 | 0.03 | 63 | 1012.9 |
| 20260506113037 | 69 | 180 | 4.3 | 12.2 | 0.00 | 0.03 | 0.03 | 62 | 1012.8 |
| 20260506112016 | 69 | 158 | 4.3 | 10.4 | 0.00 | 0.03 | 0.03 | 63 | 1012.8 |
| 20260506111016 | 69 | 158 | 5.2 | 13.0 | 0.00 | 0.03 | 0.03 | 61 | 1012.9 |
| 20260506110017 | 70 | 158 | 2.6 | 9.6 | 0.01 | 0.03 | 0.03 | 61 | 1012.9 |
| 20260506105016 | 68 | 180 | 4.3 | 10.4 | 0.01 | 0.03 | 0.03 | 62 | 1012.9 |
| 20260506104017 | 68 | 180 | 5.2 | 11.3 | 0.01 | 0.03 | 0.03 | 61 | 1013.0 |
| 20260506103016 | 67 | 135 | 2.6 | 8.7 | 0.01 | 0.03 | 0.03 | 65 | 1013.1 |
| 20260506102016 | 67 | 158 | 1.7 | 8.7 | 0.01 | 0.03 | 0.03 | 65 | 1013.2 |
| 20260506101016 | 66 | 158 | 4.3 | 13.0 | 0.01 | 0.03 | 0.03 | 65 | 1013.1 |
| 20260506100016 | 67 | 158 | 4.3 | 10.4 | 0.00 | 0.02 | 0.02 | 65 | 1013.0 |
| 20260506095016 | 65 | 158 | 4.3 | 10.4 | 0.00 | 0.02 | 0.02 | 68 | 1013.0 |
| 20260506094036 | 65 | 158 | 4.3 | 15.6 | 0.00 | 0.02 | 0.02 | 68 | 1013.1 |
| 20260506093016 | 65 | 158 | 1.7 | 6.1 | 0.00 | 0.02 | 0.02 | 72 | 1013.0 |
| 20260506092016 | 65 | 135 | 3.5 | 8.7 | 0.00 | 0.02 | 0.02 | 71 | 1013.0 |
| 20260506091016 | 64 | 135 | 1.7 | 6.1 | 0.00 | 0.02 | 0.02 | 74 | 1013.0 |
| 20260506090016 | 64 | 158 | 1.7 | 5.2 | 0.00 | 0.02 | 0.02 | 76 | 1013.0 |
| 20260506085016 | 63 | 158 | 1.7 | 5.2 | 0.00 | 0.02 | 0.02 | 77 | 1013.0 |
| 20260506084036 | 63 | 158 | 2.6 | 6.1 | 0.00 | 0.02 | 0.02 | 77 | 1012.9 |
| 20260506083016 | 63 | 113 | 1.7 | 5.2 | 0.00 | 0.02 | 0.02 | 79 | 1012.9 |
| 20260506082016 | 62 | 113 | 0.9 | 3.5 | 0.00 | 0.02 | 0.02 | 80 | 1012.9 |
| 20260506081016 | 61 | 113 | 1.7 | 6.1 | 0.00 | 0.02 | 0.02 | 80 | 1012.8 |
| 20260506073020 | 61 | 135 | 2.6 | 7.8 | 0.00 | 0.02 | 0.02 | 80 | 1012.9 |
| 20260506072016 | 60 | 135 | 5.2 | 9.6 | 0.00 | 0.02 | 0.02 | 82 | 1012.8 |
| 20260506071018 | 59 | 113 | 5.2 | 9.6 | 0.00 | 0.02 | 0.02 | 83 | 1012.8 |
| 20260506062017 | 58 | 135 | 0.9 | 6.1 | 0.01 | 0.02 | 0.02 | 86 | 1013.0 |
| 20260506061017 | 57 | 113 | 0.9 | 3.5 | 0.01 | 0.03 | 0.02 | 86 | 1013.0 |
| 20260506051017 | 57 | 90 | 3.5 | 6.1 | 0.01 | 0.11 | 0.01 | 84 | 1013.2 |
| 20260506045017 | 58 | 135 | 4.3 | 10.4 | 0.00 | 0.10 | 0.00 | 81 | 1013.2 |
| 20260506044017 | 58 | 113 | 4.3 | 8.7 | 0.00 | 0.10 | 0.00 | 82 | 1013.0 |
| 20260506043017 | 58 | 113 | 3.5 | 8.7 | 0.00 | 0.10 | 0.00 | 83 | 1013.0 |
| 20260506042018 | 58 | 113 | 2.6 | 7.8 | 0.00 | 0.11 | 0.00 | 83 | 1013.2 |
| 20260506041017 | 58 | 113 | 3.5 | 11.3 | 0.00 | 0.11 | 0.00 | 84 | 1013.2 |
| 20260506040017 | 58 | 90 | 1.7 | 5.2 | 0.00 | 0.12 | 0.00 | 85 | 1013.2 |
| 20260506035017 | 58 | 90 | 1.7 | 3.5 | 0.00 | 0.12 | 0.00 | 85 | 1013.2 |
| 20260506034017 | 58 | 68 | 3.5 | 6.1 | 0.00 | 0.13 | 0.00 | 85 | 1013.2 |
| 20260506033017 | 58 | 68 | 2.6 | 5.2 | 0.00 | 0.13 | 0.00 | 85 | 1013.0 |
| 20260506032037 | 58 | 90 | 2.6 | 5.2 | 0.00 | 0.14 | 0.00 | 87 | 1013.1 |
| 20260506031017 | 58 | 113 | 0.9 | 2.6 | 0.00 | 0.14 | 0.00 | 86 | 1013.2 |
| 20260506030017 | 59 | 113 | 1.7 | 4.3 | 0.00 | 0.14 | 0.00 | 86 | 1013.3 |
| 20260506025017 | 59 | 113 | 1.7 | 5.2 | 0.00 | 0.15 | 0.00 | 85 | 1013.4 |
| 20260506024016 | 59 | 135 | 1.7 | 5.2 | 0.00 | 0.15 | 0.00 | 84 | 1013.4 |
| 20260506023017 | 59 | 90 | 2.6 | 6.1 | 0.00 | 0.15 | 0.00 | 84 | 1013.3 |
| 20260506022057 | 59 | 113 | 1.7 | 3.5 | 0.00 | 0.15 | 0.00 | 84 | 1013.5 |
| 20260506021017 | 59 | 113 | 0.9 | 2.6 | 0.00 | 0.15 | 0.00 | 84 | 1013.5 |
| 20260506020036 | 59 | 113 | 1.7 | 5.2 | 0.00 | 0.15 | 0.00 | 85 | 1013.5 |
| 20260506015016 | 59 | 113 | 0.9 | 1.7 | 0.00 | 0.15 | 0.00 | 85 | 1013.6 |
| 20260506014016 | 60 | 113 | 0.9 | 1.7 | 0.00 | 0.15 | 0.00 | 85 | 1013.6 |
| 20260506013016 | 60 | 113 | 0.9 | 2.6 | 0.00 | 0.15 | 0.00 | 85 | 1013.6 |
| 20260506012016 | 60 | 135 | 0.9 | 4.3 | 0.00 | 0.15 | 0.00 | 85 | 1013.6 |
| 20260506011016 | 60 | 113 | 0.9 | 2.6 | 0.00 | 0.15 | 0.00 | 86 | 1013.6 |
| 20260506010036 | 59 | 135 | 0.9 | 3.5 | 0.00 | 0.15 | 0.00 | 86 | 1013.6 |
| 20260506005016 | 59 | 113 | 1.7 | 4.3 | 0.00 | 0.15 | 0.00 | 86 | 1013.5 |
| 20260506004016 | 59 | 135 | 1.7 | 4.3 | 0.00 | 0.15 | 0.00 | 86 | 1013.6 |
| 20260506003016 | 60 | 135 | 1.7 | 5.2 | 0.00 | 0.15 | 0.00 | 86 | 1013.6 |
| 20260506002036 | 60 | 113 | 1.7 | 6.1 | 0.00 | 0.15 | 0.00 | 86 | 1013.6 |
| 20260506001037 | 60 | 113 | 1.7 | 6.1 | 0.00 | 0.15 | 0.00 | 86 | 1013.8 |
| 20260506000036 | 60 | 113 | 2.6 | 6.1 | 0.00 | 0.15 | 0.00 | 86 | 1013.9 |
| 20260505235016 | 60 | 113 | 2.6 | 7.8 | 0.00 | 0.15 | 0.00 | 85 | 1014.0 |
| 20260505234016 | 60 | 113 | 1.7 | 4.3 | 0.00 | 0.15 | 0.00 | 85 | 1014.1 |
| 20260505233056 | 60 | 90 | 2.6 | 6.1 | 0.00 | 0.15 | 0.00 | 85 | 1014.2 |
| 20260505232036 | 60 | 113 | 1.7 | 6.1 | 0.00 | 0.15 | 0.00 | 85 | 1014.3 |
| 20260505231016 | 60 | 113 | 0.9 | 4.3 | 0.00 | 0.15 | 0.00 | 85 | 1014.4 |
| 20260505230116 | 60 | 113 | 2.6 | 7.8 | 0.00 | 0.15 | 0.00 | 85 | 1014.4 |
| 20260505225016 | 60 | 113 | 3.5 | 7.8 | 0.00 | 0.15 | 0.00 | 85 | 1014.5 |
| 20260505224016 | 60 | 113 | 3.5 | 6.1 | 0.00 | 0.15 | 0.00 | 85 | 1014.6 |
| 20260505223017 | 60 | 113 | 4.3 | 9.6 | 0.00 | 0.15 | 0.00 | 85 | 1014.6 |
| 20260505222018 | 60 | 113 | 3.5 | 8.7 | 0.00 | 0.15 | 0.00 | 85 | 1014.7 |
| 20260505221017 | 60 | 113 | 0.9 | 3.5 | 0.00 | 0.15 | 0.00 | 85 | 1014.7 |
| 20260505220016 | 61 | 113 | 1.7 | 3.5 | 0.00 | 0.15 | 0.15 | 84 | 1014.9 |
| 20260505215017 | 61 | 113 | 1.7 | 4.3 | 0.00 | 0.15 | 0.15 | 84 | 1014.9 |
| 20260505214058 | 61 | 135 | 1.7 | 3.5 | 0.00 | 0.15 | 0.15 | 84 | 1014.9 |
| 20260505213017 | 61 | 0.0 | 0.0 | 0.00 | 0.15 | 0.15 | 84 | 1015.0 |